Time,TemperatureF,DewpointF,PressureIn,WindDirection,WindDirectionDegrees,WindSpeedMPH,WindSpeedGustMPH,Humidity,HourlyPrecipIn,Conditions,Clouds,dailyrainin,SoftwareType,DateUTC
2013-03-28 00:02:00,50.0,16.0,27.36,ESE,112,0.0,0.0,26,0.00,,,0.00,Rainwise IP-100,2013-03-28 07:02:00,
2013-03-28 00:07:00,49.5,16.0,27.37,ESE,112,0.0,0.0,26,0.00,,,0.00,Rainwise IP-100,2013-03-28 07:07:00,
2013-03-28 00:12:00,49.2,16.0,27.37,ESE,112,0.0,0.0,27,0.00,,,0.00,Rainwise IP-100,2013-03-28 07:12:00,
2013-03-28 00:17:00,49.0,16.0,27.36,ESE,112,0.0,0.0,27,0.00,,,0.00,Rainwise IP-100,2013-03-28 07:17:00,
2013-03-28 00:22:00,48.9,16.0,27.37,ESE,112,0.0,0.0,27,0.00,,,0.00,Rainwise IP-100,2013-03-28 07:22:00,
2013-03-28 00:27:00,49.1,16.0,27.36,ESE,112,0.0,0.0,27,0.00,,,0.00,Rainwise IP-100,2013-03-28 07:27:00,
2013-03-28 00:32:00,49.5,18.0,27.37,ESE,112,0.0,0.0,27,0.00,,,0.00,Rainwise IP-100,2013-03-28 07:32:00,
2013-03-28 00:37:00,49.9,16.0,27.37,NNE,22,0.0,2.6,26,0.00,,,0.00,Rainwise IP-100,2013-03-28 07:37:00,
2013-03-28 00:42:00,50.5,18.0,27.37,NNE,22,0.0,0.0,26,0.00,,,0.00,Rainwise IP-100,2013-03-28 07:42:00,
2013-03-28 00:47:00,50.8,18.0,27.36,NNE,22,1.2,1.4,25,0.00,,,0.00,Rainwise IP-100,2013-03-28 07:47:00,
2013-03-28 00:52:00,50.9,18.0,27.36,NNE,22,0.0,1.6,25,0.00,,,0.00,Rainwise IP-100,2013-03-28 07:52:00,
2013-03-28 00:57:00,51.2,18.0,27.36,NNE,22,0.0,2.1,25,0.00,,,0.00,Rainwise IP-100,2013-03-28 07:57:00,
2013-03-28 01:02:00,52.1,16.0,27.36,NNE,22,0.0,1.6,24,0.00,,,0.00,Rainwise IP-100,2013-03-28 08:02:00,
2013-03-28 01:07:00,52.2,16.0,27.36,NNE,22,0.0,0.0,24,0.00,,,0.00,Rainwise IP-100,2013-03-28 08:07:00,
2013-03-28 01:12:00,51.2,18.0,27.36,NNE,22,0.0,0.0,25,0.00,,,0.00,Rainwise IP-100,2013-03-28 08:12:00,
2013-03-28 01:17:00,50.4,18.0,27.36,NNE,22,0.0,0.0,26,0.00,,,0.00,Rainwise IP-100,2013-03-28 08:17:00,
2013-03-28 01:22:00,50.1,16.0,27.36,NNE,22,0.0,0.0,26,0.00,,,0.00,Rainwise IP-100,2013-03-28 08:22:00,
2013-03-28 01:27:00,50.1,16.0,27.36,NNE,22,0.0,0.0,26,0.00,,,0.00,Rainwise IP-100,2013-03-28 08:27:00,
2013-03-28 01:32:00,49.9,18.0,27.36,NNE,22,0.0,0.0,27,0.00,,,0.00,Rainwise IP-100,2013-03-28 08:32:00,
2013-03-28 01:37:00,49.4,16.0,27.36,NNE,22,0.0,0.0,27,0.00,,,0.00,Rainwise IP-100,2013-03-28 08:37:00,
2013-03-28 01:42:00,48.8,18.0,27.35,NNE,22,0.0,0.0,28,0.00,,,0.00,Rainwise IP-100,2013-03-28 08:42:00,
2013-03-28 01:47:00,48.0,18.0,27.35,NNE,22,0.0,0.0,28,0.00,,,0.00,Rainwise IP-100,2013-03-28 08:47:00,
2013-03-28 01:52:00,47.6,18.0,27.35,NNE,22,0.0,1.2,29,0.00,,,0.00,Rainwise IP-100,2013-03-28 08:52:00,
2013-03-28 01:57:00,47.4,18.0,27.35,NNE,22,0.0,1.2,30,0.00,,,0.00,Rainwise IP-100,2013-03-28 08:57:00,
2013-03-28 02:02:00,47.2,18.0,27.35,NNE,22,0.0,1.2,30,0.00,,,0.00,Rainwise IP-100,2013-03-28 09:02:00,
2013-03-28 02:07:00,47.0,18.0,27.35,NNE,22,0.0,0.0,31,0.00,,,0.00,Rainwise IP-100,2013-03-28 09:07:00,
2013-03-28 02:12:00,46.6,18.0,27.35,NNE,22,0.0,1.2,31,0.00,,,0.00,Rainwise IP-100,2013-03-28 09:12:00,
2013-03-28 02:17:00,46.3,18.0,27.35,NNE,22,0.0,1.2,31,0.00,,,0.00,Rainwise IP-100,2013-03-28 09:17:00,
2013-03-28 02:22:00,46.1,18.0,27.35,NNE,22,0.0,1.2,32,0.00,,,0.00,Rainwise IP-100,2013-03-28 09:22:00,
2013-03-28 02:27:00,46.0,18.0,27.35,NNE,22,0.0,0.0,32,0.00,,,0.00,Rainwise IP-100,2013-03-28 09:27:00,
2013-03-28 02:32:00,46.0,18.0,27.34,NNE,22,0.0,1.2,32,0.00,,,0.00,Rainwise IP-100,2013-03-28 09:32:00,
2013-03-28 02:37:00,46.1,18.0,27.35,NNE,22,0.0,1.4,33,0.00,,,0.00,Rainwise IP-100,2013-03-28 09:37:00,
2013-03-28 02:42:00,46.0,18.0,27.34,NNE,22,0.0,0.0,33,0.00,,,0.00,Rainwise IP-100,2013-03-28 09:42:00,
2013-03-28 02:47:00,45.8,18.0,27.34,NNE,22,0.0,0.0,32,0.00,,,0.00,Rainwise IP-100,2013-03-28 09:47:00,
2013-03-28 02:52:00,45.3,18.0,27.35,NNE,22,0.0,1.4,33,0.00,,,0.00,Rainwise IP-100,2013-03-28 09:52:00,
2013-03-28 02:57:00,44.8,18.0,27.35,NNE,22,0.0,0.0,34,0.00,,,0.00,Rainwise IP-100,2013-03-28 09:57:00,
2013-03-28 03:02:00,44.7,18.0,27.34,NNE,22,0.0,1.4,34,0.00,,,0.00,Rainwise IP-100,2013-03-28 10:02:00,
2013-03-28 03:07:00,44.8,18.0,27.34,NNE,22,0.0,0.0,34,0.00,,,0.00,Rainwise IP-100,2013-03-28 10:07:00,
2013-03-28 03:12:00,45.1,18.0,27.34,NNE,22,0.0,1.6,33,0.00,,,0.00,Rainwise IP-100,2013-03-28 10:12:00,
2013-03-28 03:17:00,45.4,18.0,27.34,NNE,22,0.0,1.4,33,0.00,,,0.00,Rainwise IP-100,2013-03-28 10:17:00,
2013-03-28 03:22:00,45.3,18.0,27.34,NNE,22,0.0,0.0,33,0.00,,,0.00,Rainwise IP-100,2013-03-28 10:22:00,
2013-03-28 03:27:00,44.9,18.0,27.34,NNE,22,0.0,0.0,33,0.00,,,0.00,Rainwise IP-100,2013-03-28 10:27:00,
2013-03-28 03:32:00,44.6,18.0,27.34,NNE,22,0.0,0.0,34,0.00,,,0.00,Rainwise IP-100,2013-03-28 10:32:00,
2013-03-28 03:37:00,44.3,18.0,27.33,NNE,22,0.0,0.0,35,0.00,,,0.00,Rainwise IP-100,2013-03-28 10:37:00,
2013-03-28 03:42:00,44.1,18.0,27.33,NNE,22,0.0,0.0,35,0.00,,,0.00,Rainwise IP-100,2013-03-28 10:42:00,
2013-03-28 03:47:00,44.1,18.0,27.33,NNE,22,0.0,0.0,35,0.00,,,0.00,Rainwise IP-100,2013-03-28 10:47:00,
2013-03-28 03:52:00,44.2,18.0,27.33,NNE,22,0.0,0.0,35,0.00,,,0.00,Rainwise IP-100,2013-03-28 10:52:00,
2013-03-28 03:57:00,44.4,18.0,27.34,NNE,22,0.0,0.0,35,0.00,,,0.00,Rainwise IP-100,2013-03-28 10:57:00,
2013-03-28 04:02:00,44.4,18.0,27.33,NNE,22,0.0,0.0,34,0.00,,,0.00,Rainwise IP-100,2013-03-28 11:02:00,
2013-03-28 04:07:00,44.1,18.0,27.34,NNE,22,0.0,0.0,34,0.00,,,0.00,Rainwise IP-100,2013-03-28 11:07:00,
2013-03-28 04:12:00,44.1,18.0,27.34,NNE,22,0.0,0.0,35,0.00,,,0.00,Rainwise IP-100,2013-03-28 11:12:00,
2013-03-28 04:17:00,44.4,18.0,27.34,NNE,22,0.0,0.0,35,0.00,,,0.00,Rainwise IP-100,2013-03-28 11:17:00,
2013-03-28 04:22:00,44.5,21.0,27.34,NNE,22,0.0,1.2,35,0.00,,,0.00,Rainwise IP-100,2013-03-28 11:22:00,
2013-03-28 04:27:00,44.2,18.0,27.34,NNE,22,0.0,0.0,35,0.00,,,0.00,Rainwise IP-100,2013-03-28 11:27:00,
2013-03-28 04:32:00,44.1,18.0,27.34,NNE,22,0.0,0.0,36,0.00,,,0.00,Rainwise IP-100,2013-03-28 11:32:00,
2013-03-28 04:37:00,44.1,18.0,27.35,NNE,22,0.0,0.0,36,0.00,,,0.00,Rainwise IP-100,2013-03-28 11:37:00,
2013-03-28 04:42:00,44.3,18.0,27.34,NNE,22,0.0,0.0,36,0.00,,,0.00,Rainwise IP-100,2013-03-28 11:42:00,
2013-03-28 04:47:00,44.1,18.0,27.34,NNE,22,0.0,0.0,36,0.00,,,0.00,Rainwise IP-100,2013-03-28 11:47:00,
2013-03-28 04:52:00,43.7,21.0,27.34,NNE,22,0.0,0.0,37,0.00,,,0.00,Rainwise IP-100,2013-03-28 11:52:00,
2013-03-28 04:57:00,43.3,18.0,27.34,NNE,22,0.0,0.0,37,0.00,,,0.00,Rainwise IP-100,2013-03-28 11:57:00,
2013-03-28 05:02:00,42.9,18.0,27.34,NNE,22,0.0,0.0,37,0.00,,,0.00,Rainwise IP-100,2013-03-28 12:02:00,
2013-03-28 05:07:00,42.5,21.0,27.35,NNE,22,0.0,0.0,38,0.00,,,0.00,Rainwise IP-100,2013-03-28 12:07:00,
2013-03-28 05:12:00,42.2,18.0,27.35,NNE,22,0.0,1.2,38,0.00,,,0.00,Rainwise IP-100,2013-03-28 12:12:00,
2013-03-28 05:17:00,41.9,18.0,27.35,NNE,22,0.0,0.0,38,0.00,,,0.00,Rainwise IP-100,2013-03-28 12:17:00,
2013-03-28 05:22:00,41.6,21.0,27.36,NNE,22,0.0,0.0,39,0.00,,,0.00,Rainwise IP-100,2013-03-28 12:22:00,
2013-03-28 05:27:00,41.7,21.0,27.36,NNE,22,0.0,0.0,40,0.00,,,0.00,Rainwise IP-100,2013-03-28 12:27:00,
2013-03-28 05:32:00,41.9,21.0,27.36,NNE,22,0.0,0.0,40,0.00,,,0.00,Rainwise IP-100,2013-03-28 12:32:00,
2013-03-28 05:37:00,42.0,21.0,27.36,NNE,22,0.0,0.0,39,0.00,,,0.00,Rainwise IP-100,2013-03-28 12:37:00,
2013-03-28 05:43:00,41.6,21.0,27.36,NNE,22,0.0,1.4,39,0.00,,,0.00,Rainwise IP-100,2013-03-28 12:43:00,
2013-03-28 05:48:00,41.1,18.0,27.36,NNE,22,0.0,0.0,40,0.00,,,0.00,Rainwise IP-100,2013-03-28 12:48:00,
2013-03-28 05:53:00,40.6,18.0,27.37,NNE,22,0.0,0.0,40,0.00,,,0.00,Rainwise IP-100,2013-03-28 12:53:00,
2013-03-28 05:58:00,40.3,18.0,27.36,NNE,22,0.0,0.0,41,0.00,,,0.00,Rainwise IP-100,2013-03-28 12:58:00,
2013-03-28 06:03:00,40.3,21.0,27.37,NNE,22,0.0,1.4,42,0.00,,,0.00,Rainwise IP-100,2013-03-28 13:03:00,
2013-03-28 06:08:00,40.4,21.0,27.36,NNE,22,0.0,1.2,42,0.00,,,0.00,Rainwise IP-100,2013-03-28 13:08:00,
2013-03-28 06:13:00,40.5,21.0,27.37,NNE,22,0.0,0.0,42,0.00,,,0.00,Rainwise IP-100,2013-03-28 13:13:00,
2013-03-28 06:18:00,40.5,21.0,27.37,NNE,22,0.0,0.0,42,0.00,,,0.00,Rainwise IP-100,2013-03-28 13:18:00,
2013-03-28 06:23:00,40.3,21.0,27.37,NNE,22,0.0,0.0,43,0.00,,,0.00,Rainwise IP-100,2013-03-28 13:23:00,
2013-03-28 06:28:00,40.3,21.0,27.37,NNE,22,0.0,1.2,43,0.00,,,0.00,Rainwise IP-100,2013-03-28 13:28:00,
2013-03-28 06:33:00,40.5,21.0,27.37,NNE,22,1.2,1.4,44,0.00,,,0.00,Rainwise IP-100,2013-03-28 13:33:00,
2013-03-28 06:38:00,41.6,23.0,27.38,NNE,22,1.6,2.1,43,0.00,,,0.00,Rainwise IP-100,2013-03-28 13:38:00,
2013-03-28 06:43:00,43.3,21.0,27.38,NNE,22,0.0,1.9,41,0.00,,,0.00,Rainwise IP-100,2013-03-28 13:43:00,
2013-03-28 06:48:00,43.9,23.0,27.38,NNE,22,0.0,0.0,40,0.00,,,0.00,Rainwise IP-100,2013-03-28 13:48:00,
2013-03-28 06:53:00,43.7,21.0,27.38,NNE,22,0.0,0.0,39,0.00,,,0.00,Rainwise IP-100,2013-03-28 13:53:00,
2013-03-28 06:58:00,44.0,21.0,27.38,NNE,22,0.0,0.0,39,0.00,,,0.00,Rainwise IP-100,2013-03-28 13:58:00,
2013-03-28 07:03:00,44.7,23.0,27.39,NNE,22,0.0,0.0,39,0.00,,,0.00,Rainwise IP-100,2013-03-28 14:03:00,
2013-03-28 07:08:00,45.5,23.0,27.39,NNE,22,0.0,0.0,38,0.00,,,0.00,Rainwise IP-100,2013-03-28 14:08:00,
2013-03-28 07:13:00,46.7,23.0,27.38,NNE,22,0.0,0.0,37,0.00,,,0.00,Rainwise IP-100,2013-03-28 14:13:00,
2013-03-28 07:18:00,47.9,23.0,27.39,NNE,22,0.0,0.0,36,0.00,,,0.00,Rainwise IP-100,2013-03-28 14:18:00,
2013-03-28 07:23:00,49.5,24.0,27.39,NNE,22,0.0,0.0,35,0.00,,,0.00,Rainwise IP-100,2013-03-28 14:23:00,
2013-03-28 07:28:00,51.7,24.0,27.39,NNE,22,0.0,0.0,33,0.00,,,0.00,Rainwise IP-100,2013-03-28 14:28:00,
2013-03-28 07:33:00,53.4,24.0,27.38,NNE,22,0.0,0.0,31,0.00,,,0.00,Rainwise IP-100,2013-03-28 14:33:00,
2013-03-28 07:38:00,54.6,23.0,27.39,NNE,22,0.0,0.0,29,0.00,,,0.00,Rainwise IP-100,2013-03-28 14:38:00,
2013-03-28 07:43:00,56.3,24.0,27.38,NNE,22,0.0,0.0,28,0.00,,,0.00,Rainwise IP-100,2013-03-28 14:43:00,
2013-03-28 07:48:00,58.7,26.0,27.39,NNE,22,0.0,0.0,27,0.00,,,0.00,Rainwise IP-100,2013-03-28 14:48:00,
2013-03-28 07:53:00,60.8,26.0,27.39,West,270,1.2,1.4,25,0.00,,,0.00,Rainwise IP-100,2013-03-28 14:53:00,
2013-03-28 07:58:00,62.3,26.0,27.38,West,270,0.0,2.1,24,0.00,,,0.00,Rainwise IP-100,2013-03-28 14:58:00,
2013-03-28 08:03:00,64.4,24.0,27.38,West,270,0.0,0.0,22,0.00,,,0.00,Rainwise IP-100,2013-03-28 15:03:00,
2013-03-28 08:08:00,66.8,24.0,27.38,West,270,0.0,0.0,20,0.00,,,0.00,Rainwise IP-100,2013-03-28 15:08:00,
2013-03-28 08:13:00,68.4,24.0,27.39,West,270,0.0,0.0,19,0.00,,,0.00,Rainwise IP-100,2013-03-28 15:13:00,
2013-03-28 08:18:00,69.3,24.0,27.38,West,270,0.0,1.9,18,0.00,,,0.00,Rainwise IP-100,2013-03-28 15:18:00,
2013-03-28 08:23:00,70.2,24.0,27.38,West,270,0.0,2.1,17,0.00,,,0.00,Rainwise IP-100,2013-03-28 15:23:00,
2013-03-28 08:28:00,70.9,23.0,27.38,WSW,247,1.2,2.1,16,0.00,,,0.00,Rainwise IP-100,2013-03-28 15:28:00,
2013-03-28 08:33:00,71.4,23.0,27.39,SSW,202,1.2,3.3,16,0.00,,,0.00,Rainwise IP-100,2013-03-28 15:33:00,
2013-03-28 08:38:00,71.7,23.0,27.38,South,180,2.1,4.9,16,0.00,,,0.00,Rainwise IP-100,2013-03-28 15:38:00,
2013-03-28 08:43:00,72.2,24.0,27.39,SSW,202,1.9,3.5,16,0.00,,,0.00,Rainwise IP-100,2013-03-28 15:43:00,
2013-03-28 08:48:00,72.7,24.0,27.39,SSW,202,1.6,4.4,16,0.00,,,0.00,Rainwise IP-100,2013-03-28 15:48:00,
2013-03-28 08:53:00,72.9,24.0,27.39,WSW,247,0.0,3.3,16,0.00,,,0.00,Rainwise IP-100,2013-03-28 15:53:00,
2013-03-28 08:58:00,73.2,24.0,27.39,WSW,247,2.6,3.0,16,0.00,,,0.00,Rainwise IP-100,2013-03-28 15:58:00,
2013-03-28 09:03:00,73.4,24.0,27.39,West,270,0.0,3.5,16,0.00,,,0.00,Rainwise IP-100,2013-03-28 16:03:00,
2013-03-28 09:08:00,73.6,24.0,27.39,NNW,337,0.0,4.2,15,0.00,,,0.00,Rainwise IP-100,2013-03-28 16:08:00,
2013-03-28 09:13:00,74.2,24.0,27.39,WSW,247,2.3,4.2,15,0.00,,,0.00,Rainwise IP-100,2013-03-28 16:13:00,
2013-03-28 09:18:00,74.9,24.0,27.39,South,180,2.6,3.3,15,0.00,,,0.00,Rainwise IP-100,2013-03-28 16:18:00,
2013-03-28 09:23:00,75.5,23.0,27.39,NW,315,3.0,5.4,14,0.00,,,0.00,Rainwise IP-100,2013-03-28 16:23:00,
2013-03-28 09:28:00,75.4,23.0,27.39,WSW,247,1.4,4.2,14,0.00,,,0.00,Rainwise IP-100,2013-03-28 16:28:00,
2013-03-28 09:33:00,75.4,23.0,27.39,NNW,337,2.6,4.7,14,0.00,,,0.00,Rainwise IP-100,2013-03-28 16:33:00,
2013-03-28 09:38:00,75.8,26.0,27.39,WSW,247,2.8,4.4,15,0.00,,,0.00,Rainwise IP-100,2013-03-28 16:38:00,
2013-03-28 09:43:00,75.8,26.0,27.39,SE,135,1.2,4.9,15,0.00,,,0.00,Rainwise IP-100,2013-03-28 16:43:00,
2013-03-28 09:48:00,76.3,26.0,27.39,SSE,157,2.1,3.7,15,0.00,,,0.00,Rainwise IP-100,2013-03-28 16:48:00,
2013-03-28 09:53:00,77.4,26.0,27.39,West,270,4.9,4.9,15,0.00,,,0.00,Rainwise IP-100,2013-03-28 16:53:00,
2013-03-28 09:58:00,77.7,26.0,27.39,West,270,0.0,6.1,15,0.00,,,0.00,Rainwise IP-100,2013-03-28 16:58:00,
2013-03-28 10:03:00,77.2,28.0,27.39,West,270,2.3,4.7,16,0.00,,,0.00,Rainwise IP-100,2013-03-28 17:03:00,
2013-03-28 10:08:00,76.9,28.0,27.39,NNW,337,1.6,6.3,16,0.00,,,0.00,Rainwise IP-100,2013-03-28 17:08:00,
2013-03-28 10:13:00,77.4,28.0,27.39,SW,225,4.0,5.1,16,0.00,,,0.00,Rainwise IP-100,2013-03-28 17:13:00,
2013-03-28 10:18:00,78.5,31.0,27.39,SW,225,3.7,5.8,17,0.00,,,0.00,Rainwise IP-100,2013-03-28 17:18:00,
2013-03-28 10:23:00,78.6,32.0,27.39,WSW,247,3.3,5.6,18,0.00,,,0.00,Rainwise IP-100,2013-03-28 17:23:00,
2013-03-28 10:28:00,78.2,32.0,27.39,SW,225,3.7,6.1,18,0.00,,,0.00,Rainwise IP-100,2013-03-28 17:28:00,
2013-03-28 10:33:00,78.0,31.0,27.39,West,270,2.8,6.1,18,0.00,,,0.00,Rainwise IP-100,2013-03-28 17:33:00,
2013-03-28 10:38:00,77.7,31.0,27.39,West,270,2.6,6.3,18,0.00,,,0.00,Rainwise IP-100,2013-03-28 17:38:00,
2013-03-28 10:43:00,77.0,31.0,27.38,NE,45,0.0,7.2,18,0.00,,,0.00,Rainwise IP-100,2013-03-28 17:43:00,
2013-03-28 10:48:00,77.5,31.0,27.38,WNW,292,2.8,6.1,18,0.00,,,0.00,Rainwise IP-100,2013-03-28 17:48:00,
2013-03-28 10:53:00,77.9,31.0,27.38,NNW,337,5.1,8.4,18,0.00,,,0.00,Rainwise IP-100,2013-03-28 17:53:00,
2013-03-28 10:58:00,77.7,31.0,27.38,SW,225,4.7,13.3,18,0.00,,,0.00,Rainwise IP-100,2013-03-28 17:58:00,
2013-03-28 11:03:00,78.1,31.0,27.39,WSW,247,4.4,8.2,18,0.00,,,0.00,Rainwise IP-100,2013-03-28 18:03:00,
2013-03-28 11:08:00,78.4,32.0,27.38,WSW,247,2.3,12.6,18,0.00,,,0.00,Rainwise IP-100,2013-03-28 18:08:00,
2013-03-28 11:13:00,78.3,32.0,27.38,WSW,247,2.1,7.0,18,0.00,,,0.00,Rainwise IP-100,2013-03-28 18:13:00,
2013-03-28 11:18:00,78.1,31.0,27.39,SE,135,4.0,6.8,18,0.00,,,0.00,Rainwise IP-100,2013-03-28 18:18:00,
2013-03-28 11:23:00,77.3,31.0,27.39,WSW,247,4.0,6.5,18,0.00,,,0.00,Rainwise IP-100,2013-03-28 18:23:00,
2013-03-28 11:28:00,76.8,31.0,27.39,WNW,292,3.7,7.0,18,0.00,,,0.00,Rainwise IP-100,2013-03-28 18:28:00,
2013-03-28 11:33:00,76.5,31.0,27.39,WSW,247,3.0,7.0,18,0.00,,,0.00,Rainwise IP-100,2013-03-28 18:33:00,
2013-03-28 11:38:00,77.0,31.0,27.39,SW,225,4.4,8.6,18,0.00,,,0.00,Rainwise IP-100,2013-03-28 18:38:00,
2013-03-28 11:43:00,77.7,29.0,27.38,WNW,292,2.3,9.1,17,0.00,,,0.00,Rainwise IP-100,2013-03-28 18:43:00,
2013-03-28 11:48:00,77.2,28.0,27.38,WNW,292,6.5,7.7,16,0.00,,,0.00,Rainwise IP-100,2013-03-28 18:48:00,
2013-03-28 11:53:00,76.5,28.0,27.38,WNW,292,1.6,7.5,16,0.00,,,0.00,Rainwise IP-100,2013-03-28 18:53:00,
2013-03-28 11:58:00,76.5,28.0,27.37,WSW,247,3.7,6.1,16,0.00,,,0.00,Rainwise IP-100,2013-03-28 18:58:00,
2013-03-28 12:03:00,77.4,29.0,27.37,WNW,292,3.5,7.2,17,0.00,,,0.00,Rainwise IP-100,2013-03-28 19:03:00,
2013-03-28 12:09:00,77.9,29.0,27.37,WSW,247,2.3,6.1,17,0.00,,,0.00,Rainwise IP-100,2013-03-28 19:09:00,
2013-03-28 12:14:00,77.9,29.0,27.37,NNW,337,2.1,6.1,17,0.00,,,0.00,Rainwise IP-100,2013-03-28 19:14:00,
2013-03-28 12:19:00,78.8,29.0,27.37,WNW,292,5.1,7.0,16,0.00,,,0.00,Rainwise IP-100,2013-03-28 19:19:00,
2013-03-28 12:24:00,79.6,29.0,27.37,WNW,292,5.8,6.1,16,0.00,,,0.00,Rainwise IP-100,2013-03-28 19:24:00,
2013-03-28 12:29:00,79.5,29.0,27.37,WSW,247,5.4,9.6,16,0.00,,,0.00,Rainwise IP-100,2013-03-28 19:29:00,
2013-03-28 12:34:00,79.4,31.0,27.37,WNW,292,4.2,7.7,17,0.00,,,0.00,Rainwise IP-100,2013-03-28 19:34:00,
2013-03-28 12:39:00,79.6,29.0,27.36,NW,315,5.6,7.7,16,0.00,,,0.00,Rainwise IP-100,2013-03-28 19:39:00,
2013-03-28 12:44:00,79.9,28.0,27.37,NNW,337,2.1,9.1,15,0.00,,,0.00,Rainwise IP-100,2013-03-28 19:44:00,
2013-03-28 12:49:00,80.2,29.0,27.36,West,270,5.1,6.8,15,0.00,,,0.00,Rainwise IP-100,2013-03-28 19:49:00,
2013-03-28 12:54:00,80.4,28.0,27.36,SSW,202,2.1,6.1,14,0.00,,,0.00,Rainwise IP-100,2013-03-28 19:54:00,
2013-03-28 12:59:00,80.8,26.0,27.36,ESE,112,3.3,4.4,13,0.00,,,0.00,Rainwise IP-100,2013-03-28 19:59:00,
2013-03-28 13:04:00,81.1,26.0,27.36,NNE,22,0.0,4.9,13,0.00,,,0.00,Rainwise IP-100,2013-03-28 20:04:00,
2013-03-28 13:09:00,81.7,26.0,27.36,SSE,157,1.2,3.0,13,0.00,,,0.00,Rainwise IP-100,2013-03-28 20:09:00,
2013-03-28 13:14:00,82.8,26.0,27.35,WSW,247,5.4,8.6,12,0.00,,,0.00,Rainwise IP-100,2013-03-28 20:14:00,
2013-03-28 13:19:00,82.5,23.0,27.36,West,270,1.6,7.9,11,0.00,,,0.00,Rainwise IP-100,2013-03-28 20:19:00,
2013-03-28 13:24:00,82.1,23.0,27.35,WSW,247,4.9,8.6,11,0.00,,,0.00,Rainwise IP-100,2013-03-28 20:24:00,
2013-03-28 13:29:00,82.1,23.0,27.34,West,270,4.0,9.8,11,0.00,,,0.00,Rainwise IP-100,2013-03-28 20:29:00,
2013-03-28 13:34:00,81.9,24.0,27.35,WSW,247,8.9,10.5,12,0.00,,,0.00,Rainwise IP-100,2013-03-28 20:34:00,
2013-03-28 13:39:00,81.4,24.0,27.35,SSW,202,3.3,11.0,12,0.00,,,0.00,Rainwise IP-100,2013-03-28 20:39:00,
2013-03-28 13:44:00,81.8,24.0,27.35,SSW,202,4.9,8.9,12,0.00,,,0.00,Rainwise IP-100,2013-03-28 20:44:00,
2013-03-28 13:49:00,82.3,24.0,27.34,WSW,247,2.6,8.4,12,0.00,,,0.00,Rainwise IP-100,2013-03-28 20:49:00,
2013-03-28 13:54:00,82.2,24.0,27.34,SSW,202,2.6,8.2,12,0.00,,,0.00,Rainwise IP-100,2013-03-28 20:54:00,
2013-03-28 13:59:00,82.0,24.0,27.34,WSW,247,3.7,6.8,12,0.00,,,0.00,Rainwise IP-100,2013-03-28 20:59:00,
2013-03-28 14:04:00,82.1,26.0,27.33,SSW,202,7.9,7.9,13,0.00,,,0.00,Rainwise IP-100,2013-03-28 21:04:00,
2013-03-28 14:09:00,83.0,26.0,27.33,WNW,292,3.7,8.2,12,0.00,,,0.00,Rainwise IP-100,2013-03-28 21:09:00,
2013-03-28 14:14:00,83.2,26.0,27.33,SSW,202,2.1,8.6,12,0.00,,,0.00,Rainwise IP-100,2013-03-28 21:14:00,
2013-03-28 14:19:00,83.4,26.0,27.33,SSW,202,1.2,6.8,12,0.00,,,0.00,Rainwise IP-100,2013-03-28 21:19:00,
2013-03-28 14:24:00,83.8,24.0,27.33,SW,225,0.0,7.5,11,0.00,,,0.00,Rainwise IP-100,2013-03-28 21:24:00,
2013-03-28 14:29:00,84.1,24.0,27.32,South,180,9.6,9.6,11,0.00,,,0.00,Rainwise IP-100,2013-03-28 21:29:00,
2013-03-28 14:34:00,84.9,24.0,27.32,NW,315,1.6,9.6,11,0.00,,,0.00,Rainwise IP-100,2013-03-28 21:34:00,
2013-03-28 14:39:00,84.6,24.0,27.32,SSE,157,1.4,7.9,11,0.00,,,0.00,Rainwise IP-100,2013-03-28 21:39:00,
2013-03-28 14:44:00,82.9,24.0,27.31,WNW,292,2.6,4.9,11,0.00,,,0.00,Rainwise IP-100,2013-03-28 21:44:00,
2013-03-28 14:49:00,82.4,23.0,27.31,NW,315,1.4,7.0,11,0.00,,,0.00,Rainwise IP-100,2013-03-28 21:49:00,
2013-03-28 14:54:00,82.9,24.0,27.31,NNW,337,6.5,7.2,11,0.00,,,0.00,Rainwise IP-100,2013-03-28 21:54:00,
2013-03-28 14:59:00,83.2,24.0,27.31,NNW,337,5.4,8.2,11,0.00,,,0.00,Rainwise IP-100,2013-03-28 21:59:00,
2013-03-28 15:04:00,83.5,23.0,27.30,WNW,292,5.8,9.1,10,0.00,,,0.00,Rainwise IP-100,2013-03-28 22:04:00,
2013-03-28 15:09:00,83.5,23.0,27.30,WNW,292,3.7,8.6,10,0.00,,,0.00,Rainwise IP-100,2013-03-28 22:09:00,
2013-03-28 15:14:00,83.2,23.0,27.30,SSW,202,2.6,8.6,10,0.00,,,0.00,Rainwise IP-100,2013-03-28 22:14:00,
2013-03-28 15:19:00,83.5,23.0,27.30,WNW,292,0.0,7.0,10,0.00,,,0.00,Rainwise IP-100,2013-03-28 22:19:00,
2013-03-28 15:24:00,84.5,21.0,27.30,West,270,4.9,8.4,9,0.00,,,0.00,Rainwise IP-100,2013-03-28 22:24:00,
2013-03-28 15:29:00,84.8,21.0,27.30,SSE,157,5.1,7.2,9,0.00,,,0.00,Rainwise IP-100,2013-03-28 22:29:00,
2013-03-28 15:34:00,84.8,21.0,27.30,WNW,292,2.1,5.1,9,0.00,,,0.00,Rainwise IP-100,2013-03-28 22:34:00,
2013-03-28 15:39:00,84.8,21.0,27.30,WSW,247,5.4,7.7,9,0.00,,,0.00,Rainwise IP-100,2013-03-28 22:39:00,
2013-03-28 15:44:00,84.5,18.0,27.30,WNW,292,5.4,7.5,8,0.00,,,0.00,Rainwise IP-100,2013-03-28 22:44:00,
2013-03-28 15:49:00,83.8,16.0,27.30,WNW,292,7.2,8.4,8,0.00,,,0.00,Rainwise IP-100,2013-03-28 22:49:00,
2013-03-28 15:54:00,83.1,16.0,27.30,WNW,292,1.6,12.8,8,0.00,,,0.00,Rainwise IP-100,2013-03-28 22:54:00,
2013-03-28 15:59:00,83.0,16.0,27.30,WSW,247,4.4,9.3,8,0.00,,,0.00,Rainwise IP-100,2013-03-28 22:59:00,
2013-03-28 16:04:00,83.4,16.0,27.29,WSW,247,8.2,10.5,8,0.00,,,0.00,Rainwise IP-100,2013-03-28 23:04:00,
2013-03-28 16:09:00,83.6,16.0,27.29,WNW,292,6.5,12.1,8,0.00,,,0.00,Rainwise IP-100,2013-03-28 23:09:00,
2013-03-28 16:14:00,83.4,16.0,27.30,SSW,202,4.9,9.8,8,0.00,,,0.00,Rainwise IP-100,2013-03-28 23:14:00,
2013-03-28 16:19:00,84.0,16.0,27.30,SSW,202,3.7,10.0,8,0.00,,,0.00,Rainwise IP-100,2013-03-28 23:19:00,
2013-03-28 16:24:00,84.6,14.0,27.30,SW,225,4.2,8.4,7,0.00,,,0.00,Rainwise IP-100,2013-03-28 23:24:00,
2013-03-28 16:29:00,84.2,14.0,27.29,SSW,202,4.9,11.0,7,0.00,,,0.00,Rainwise IP-100,2013-03-28 23:29:00,
2013-03-28 16:34:00,84.0,14.0,27.30,WSW,247,9.1,11.2,7,0.00,,,0.00,Rainwise IP-100,2013-03-28 23:34:00,
2013-03-28 16:39:00,84.1,14.0,27.30,SSW,202,2.3,9.1,7,0.00,,,0.00,Rainwise IP-100,2013-03-28 23:39:00,
2013-03-28 16:44:00,84.1,16.0,27.29,WSW,247,4.7,7.7,8,0.00,,,0.00,Rainwise IP-100,2013-03-28 23:44:00,
2013-03-28 16:49:00,83.5,16.0,27.29,WSW,247,4.2,7.2,8,0.00,,,0.00,Rainwise IP-100,2013-03-28 23:49:00,
2013-03-28 16:54:00,82.3,18.0,27.30,WSW,247,4.0,11.7,9,0.00,,,0.00,Rainwise IP-100,2013-03-28 23:54:00,
2013-03-28 16:59:00,81.3,18.0,27.29,WSW,247,1.9,10.5,9,0.00,,,0.00,Rainwise IP-100,2013-03-28 23:59:00,
2013-03-28 17:04:00,80.9,18.0,27.30,WNW,292,5.1,9.6,9,0.00,,,0.00,Rainwise IP-100,2013-03-29 00:04:00,
2013-03-28 17:09:00,80.7,18.0,27.30,WSW,247,2.6,15.2,9,0.00,,,0.00,Rainwise IP-100,2013-03-29 00:09:00,
2013-03-28 17:14:00,80.6,16.0,27.30,NNW,337,3.0,10.0,9,0.00,,,0.00,Rainwise IP-100,2013-03-29 00:14:00,
2013-03-28 17:19:00,80.5,16.0,27.30,WNW,292,4.0,9.1,9,0.00,,,0.00,Rainwise IP-100,2013-03-29 00:19:00,
2013-03-28 17:24:00,80.3,16.0,27.30,NW,315,3.3,9.8,9,0.00,,,0.00,Rainwise IP-100,2013-03-29 00:24:00,
2013-03-28 17:29:00,80.0,16.0,27.30,WNW,292,1.6,8.6,9,0.00,,,0.00,Rainwise IP-100,2013-03-29 00:29:00,
2013-03-28 17:34:00,79.9,16.0,27.31,WSW,247,0.0,4.4,9,0.00,,,0.00,Rainwise IP-100,2013-03-29 00:34:00,
2013-03-28 17:39:00,79.8,16.0,27.31,WNW,292,5.6,5.6,9,0.00,,,0.00,Rainwise IP-100,2013-03-29 00:39:00,
2013-03-28 17:44:00,79.7,16.0,27.30,WNW,292,4.2,11.0,9,0.00,,,0.00,Rainwise IP-100,2013-03-29 00:44:00,
2013-03-28 17:49:00,79.4,16.0,27.31,WNW,292,3.5,8.2,9,0.00,,,0.00,Rainwise IP-100,2013-03-29 00:49:00,
2013-03-28 17:54:00,79.1,16.0,27.31,NNW,337,3.0,11.2,9,0.00,,,0.00,Rainwise IP-100,2013-03-29 00:54:00,
2013-03-28 17:59:00,78.7,16.0,27.30,West,270,3.7,5.6,9,0.00,,,0.00,Rainwise IP-100,2013-03-29 00:59:00,
2013-03-28 18:04:00,78.4,16.0,27.31,WSW,247,2.1,8.2,9,0.00,,,0.00,Rainwise IP-100,2013-03-29 01:04:00,
2013-03-28 18:10:00,78.0,18.0,27.31,WNW,292,5.4,5.8,10,0.00,,,0.00,Rainwise IP-100,2013-03-29 01:10:00,
2013-03-28 18:15:00,77.8,18.0,27.31,WNW,292,1.2,7.9,10,0.00,,,0.00,Rainwise IP-100,2013-03-29 01:15:00,
2013-03-28 18:20:00,77.5,18.0,27.31,WNW,292,0.0,6.3,10,0.00,,,0.00,Rainwise IP-100,2013-03-29 01:20:00,
2013-03-28 18:25:00,77.2,18.0,27.31,WNW,292,3.7,4.9,10,0.00,,,0.00,Rainwise IP-100,2013-03-29 01:25:00,
2013-03-28 18:30:00,76.9,16.0,27.31,WNW,292,1.2,4.4,10,0.00,,,0.00,Rainwise IP-100,2013-03-29 01:30:00,
2013-03-28 18:35:00,76.6,16.0,27.32,WNW,292,1.2,2.1,10,0.00,,,0.00,Rainwise IP-100,2013-03-29 01:35:00,
2013-03-28 18:40:00,76.1,16.0,27.32,WNW,292,1.4,5.8,10,0.00,,,0.00,Rainwise IP-100,2013-03-29 01:40:00,
2013-03-28 18:45:00,75.6,16.0,27.32,WNW,292,2.1,4.2,10,0.00,,,0.00,Rainwise IP-100,2013-03-29 01:45:00,
2013-03-28 18:50:00,75.3,16.0,27.32,WNW,292,0.0,3.5,10,0.00,,,0.00,Rainwise IP-100,2013-03-29 01:50:00,
2013-03-28 18:55:00,75.0,16.0,27.32,WSW,247,2.3,3.3,10,0.00,,,0.00,Rainwise IP-100,2013-03-29 01:55:00,
2013-03-28 19:00:00,74.6,18.0,27.32,West,270,2.1,3.0,11,0.00,,,0.00,Rainwise IP-100,2013-03-29 02:00:00,
2013-03-28 19:05:00,74.3,16.0,27.32,West,270,0.0,4.2,11,0.00,,,0.00,Rainwise IP-100,2013-03-29 02:05:00,
2013-03-28 19:10:00,74.2,16.0,27.33,WSW,247,4.0,4.0,11,0.00,,,0.00,Rainwise IP-100,2013-03-29 02:10:00,
2013-03-28 19:15:00,74.0,16.0,27.32,WSW,247,1.6,4.4,11,0.00,,,0.00,Rainwise IP-100,2013-03-29 02:15:00,
2013-03-28 19:20:00,73.8,16.0,27.33,WSW,247,0.0,4.4,11,0.00,,,0.00,Rainwise IP-100,2013-03-29 02:20:00,
2013-03-28 19:25:00,73.7,16.0,27.33,WSW,247,0.0,3.7,11,0.00,,,0.00,Rainwise IP-100,2013-03-29 02:25:00,
2013-03-28 19:30:00,73.3,16.0,27.33,WSW,247,0.0,1.6,11,0.00,,,0.00,Rainwise IP-100,2013-03-29 02:30:00,
2013-03-28 19:35:00,72.7,16.0,27.33,WSW,247,0.0,1.6,11,0.00,,,0.00,Rainwise IP-100,2013-03-29 02:35:00,
2013-03-28 19:40:00,72.0,16.0,27.34,WSW,247,0.0,1.4,12,0.00,,,0.00,Rainwise IP-100,2013-03-29 02:40:00,
2013-03-28 19:45:00,71.2,16.0,27.33,WSW,247,0.0,0.0,12,0.00,,,0.00,Rainwise IP-100,2013-03-29 02:45:00,
2013-03-28 19:50:00,70.7,16.0,27.34,WSW,247,0.0,0.0,12,0.00,,,0.00,Rainwise IP-100,2013-03-29 02:50:00,
2013-03-28 19:55:00,70.2,16.0,27.34,WSW,247,0.0,0.0,12,0.00,,,0.00,Rainwise IP-100,2013-03-29 02:55:00,
2013-03-28 20:00:00,69.6,16.0,27.34,WSW,247,0.0,0.0,13,0.00,,,0.00,Rainwise IP-100,2013-03-29 03:00:00,
2013-03-28 20:05:00,68.7,16.0,27.35,WSW,247,0.0,0.0,13,0.00,,,0.00,Rainwise IP-100,2013-03-29 03:05:00,
2013-03-28 20:10:00,67.8,18.0,27.35,WSW,247,0.0,0.0,14,0.00,,,0.00,Rainwise IP-100,2013-03-29 03:10:00,
2013-03-28 20:15:00,67.0,16.0,27.35,WSW,247,0.0,0.0,14,0.00,,,0.00,Rainwise IP-100,2013-03-29 03:15:00,
2013-03-28 20:20:00,66.4,18.0,27.35,WSW,247,0.0,0.0,15,0.00,,,0.00,Rainwise IP-100,2013-03-29 03:20:00,
2013-03-28 20:25:00,66.1,18.0,27.36,WSW,247,0.0,0.0,15,0.00,,,0.00,Rainwise IP-100,2013-03-29 03:25:00,
2013-03-28 20:30:00,65.6,18.0,27.36,WSW,247,0.0,0.0,16,0.00,,,0.00,Rainwise IP-100,2013-03-29 03:30:00,
2013-03-28 20:35:00,65.0,18.0,27.36,WSW,247,0.0,0.0,16,0.00,,,0.00,Rainwise IP-100,2013-03-29 03:35:00,
2013-03-28 20:40:00,64.7,18.0,27.36,WSW,247,0.0,4.9,16,0.00,,,0.00,Rainwise IP-100,2013-03-29 03:40:00,
2013-03-28 20:45:00,64.8,18.0,27.36,WSW,247,0.0,2.8,16,0.00,,,0.00,Rainwise IP-100,2013-03-29 03:45:00,
2013-03-28 20:50:00,65.2,16.0,27.36,WNW,292,2.3,5.4,15,0.00,,,0.00,Rainwise IP-100,2013-03-29 03:50:00,
2013-03-28 20:55:00,66.9,18.0,27.37,West,270,2.1,4.4,15,0.00,,,0.00,Rainwise IP-100,2013-03-29 03:55:00,
2013-03-28 21:00:00,69.0,16.0,27.37,West,270,2.1,4.2,13,0.00,,,0.00,Rainwise IP-100,2013-03-29 04:00:00,
2013-03-28 21:01:00,69.3,16.0,27.36,WSW,247,3.0,4.2,13,0.00,,,0.00,Rainwise IP-100,2013-03-29 04:01:00,
2013-03-28 21:06:00,70.3,18.0,27.36,WSW,247,3.3,7.9,13,0.00,,,0.00,Rainwise IP-100,2013-03-29 04:06:00,
2013-03-28 21:11:00,70.9,18.0,27.36,WSW,247,2.6,7.9,13,0.00,,,0.00,Rainwise IP-100,2013-03-29 04:11:00,
2013-03-28 21:16:00,70.9,18.0,27.37,WSW,247,2.6,5.4,13,0.00,,,0.00,Rainwise IP-100,2013-03-29 04:16:00,
2013-03-28 21:21:00,70.9,18.0,27.37,SW,225,0.0,6.1,13,0.00,,,0.00,Rainwise IP-100,2013-03-29 04:21:00,
2013-03-28 21:26:00,71.1,16.0,27.37,WSW,247,3.0,7.2,12,0.00,,,0.00,Rainwise IP-100,2013-03-29 04:26:00,
2013-03-28 21:31:00,71.1,16.0,27.38,SSW,202,1.9,4.4,12,0.00,,,0.00,Rainwise IP-100,2013-03-29 04:31:00,
2013-03-28 21:36:00,71.0,16.0,27.38,WSW,247,0.0,6.8,12,0.00,,,0.00,Rainwise IP-100,2013-03-29 04:36:00,
2013-03-28 21:41:00,70.7,16.0,27.38,SSW,202,3.0,3.0,12,0.00,,,0.00,Rainwise IP-100,2013-03-29 04:41:00,
2013-03-28 21:46:00,70.4,16.0,27.38,SSW,202,2.8,4.0,12,0.00,,,0.00,Rainwise IP-100,2013-03-29 04:46:00,
2013-03-28 21:51:00,70.2,18.0,27.38,SSE,157,1.4,4.0,13,0.00,,,0.00,Rainwise IP-100,2013-03-29 04:51:00,
2013-03-28 21:56:00,70.1,18.0,27.38,ESE,112,3.7,3.7,13,0.00,,,0.00,Rainwise IP-100,2013-03-29 04:56:00,
2013-03-28 22:01:00,69.2,16.0,27.39,ESE,112,3.0,3.7,13,0.00,,,0.00,Rainwise IP-100,2013-03-29 05:01:00,
2013-03-28 22:06:00,68.1,18.0,27.39,ESE,112,3.3,3.3,14,0.00,,,0.00,Rainwise IP-100,2013-03-29 05:06:00,
2013-03-28 22:11:00,67.8,18.0,27.39,SE,135,2.1,4.7,15,0.00,,,0.00,Rainwise IP-100,2013-03-29 05:11:00,
2013-03-28 22:16:00,67.9,18.0,27.39,East,90,2.1,4.2,15,0.00,,,0.00,Rainwise IP-100,2013-03-29 05:16:00,
2013-03-28 22:21:00,68.6,18.0,27.39,ENE,67,0.0,7.7,14,0.00,,,0.00,Rainwise IP-100,2013-03-29 05:21:00,
2013-03-28 22:26:00,69.3,18.0,27.39,ESE,112,0.0,7.9,14,0.00,,,0.00,Rainwise IP-100,2013-03-29 05:26:00,
2013-03-28 22:31:00,69.1,18.0,27.39,SSE,157,0.0,2.3,14,0.00,,,0.00,Rainwise IP-100,2013-03-29 05:31:00,
2013-03-28 22:36:00,68.5,18.0,27.40,ENE,67,0.0,3.5,14,0.00,,,0.00,Rainwise IP-100,2013-03-29 05:36:00,
2013-03-28 22:41:00,67.8,18.0,27.39,South,180,1.9,1.9,15,0.00,,,0.00,Rainwise IP-100,2013-03-29 05:41:00,
2013-03-28 22:47:00,67.2,18.0,27.40,ESE,112,2.8,2.8,15,0.00,,,0.00,Rainwise IP-100,2013-03-29 05:47:00,
2013-03-28 22:52:00,67.3,18.0,27.39,ESE,112,1.4,4.7,15,0.00,,,0.00,Rainwise IP-100,2013-03-29 05:52:00,
2013-03-28 22:57:00,67.2,21.0,27.39,ESE,112,0.0,3.5,16,0.00,,,0.00,Rainwise IP-100,2013-03-29 05:57:00,
2013-03-28 23:02:00,66.5,21.0,27.40,SE,135,1.2,1.9,16,0.00,,,0.00,Rainwise IP-100,2013-03-29 06:02:00,
2013-03-28 23:07:00,65.7,18.0,27.40,ESE,112,1.9,2.3,16,0.00,,,0.00,Rainwise IP-100,2013-03-29 06:07:00,
2013-03-28 23:12:00,65.2,21.0,27.40,ESE,112,1.4,2.1,17,0.00,,,0.00,Rainwise IP-100,2013-03-29 06:12:00,
2013-03-28 23:17:00,65.1,21.0,27.40,ESE,112,1.4,2.3,17,0.00,,,0.00,Rainwise IP-100,2013-03-29 06:17:00,
2013-03-28 23:22:00,65.1,21.0,27.40,ESE,112,1.2,3.3,17,0.00,,,0.00,Rainwise IP-100,2013-03-29 06:22:00,
2013-03-28 23:27:00,65.2,21.0,27.40,ESE,112,0.0,2.6,17,0.00,,,0.00,Rainwise IP-100,2013-03-29 06:27:00,
2013-03-28 23:32:00,64.9,21.0,27.40,ESE,112,1.4,2.1,17,0.00,,,0.00,Rainwise IP-100,2013-03-29 06:32:00,
2013-03-28 23:37:00,64.5,21.0,27.40,ESE,112,0.0,2.6,18,0.00,,,0.00,Rainwise IP-100,2013-03-29 06:37:00,
2013-03-28 23:42:00,64.1,21.0,27.40,ESE,112,0.0,1.2,18,0.00,,,0.00,Rainwise IP-100,2013-03-29 06:42:00,
2013-03-28 23:47:00,63.6,21.0,27.40,ESE,112,0.0,1.2,18,0.00,,,0.00,Rainwise IP-100,2013-03-29 06:47:00,
2013-03-28 23:52:00,63.3,21.0,27.40,ESE,112,1.9,1.9,18,0.00,,,0.00,Rainwise IP-100,2013-03-29 06:52:00,
2013-03-28 23:57:00,63.5,21.0,27.40,ESE,112,1.9,3.0,19,0.00,,,0.00,Rainwise IP-100,2013-03-29 06:57:00,